{"data":{"norad_id":67585,"intl_designator":"2026-016AA","name":"STARLINK-36560","alt_names":[],"object_type":"PAYLOAD","status":"ACTIVE","operator":null,"country":"US","launch_date":"2026-01-25","launch_site_code":"AFWTR","launch_vehicle":null,"mission":null,"orbit_class":"UNKNOWN","rcs_meters":null,"size_class":null,"mass_kg":null,"dimensions":null,"purposes":["comms"],"wikipedia_slug":null,"has_3d_model":false,"image_url":null,"decayed_at":null,"tle_current":{"epoch":"2026-05-25T02:39:46.683072Z","epoch_age_seconds":58853,"freshness":"FRESH","line1":"1 67585U 26016AA  26145.11095698  .00011971  00000+0  37246-3 0  9996","line2":"2 67585  97.2849 205.4095 0000363 106.1893 253.9390 15.33452376 18578","mean_motion":15.33452376,"eccentricity":3.63e-5,"inclination_deg":97.2849,"raan_deg":205.4095,"arg_perigee_deg":106.1893,"mean_anomaly_deg":253.939,"bstar":0.00037246,"rev_number":1857,"period_min":93.90575296223,"perigee_km":465.27280398585,"apogee_km":465.76965357326,"semimajor_km":6843.6582287796,"source":"CELESTRAK","updated_at":"2026-05-25T13:38:21.618582Z"}}}